Tracking 25963 objects as of 13-Aug-2022
HD Live streaming from Space Station
objects crossing your sky now

ONEWEB-0027

Track ONEWEB-0027 now!
10-day predictions
ONEWEB-0027 is classified as:


NORAD ID: 45432
Int'l Code: 2020-020J
Perigee: 1,199.3 km
Apogee: 1,202.4 km
Inclination: 87.9 °
Period: 109.3 minutes
Semi major axis: 7571 km
RCS: Unknown
Launch date: March 21, 2020
Source: United Kingdom (UK)
Launch site: TYURATAM MISSILE AND SPACE COMPLEX (TTMTR)
aabbcc
Your satellite tracking list
Your tracking list is empty




NASA's NSSDC Master Catalog

Two Line Element Set (TLE):
1 45432U 20020J   22225.10499558  .00000050  00000-0  95664-4 0  9995
2 45432  87.9061 284.9636 0002031  90.4627 269.6738 13.17650993121451
Source of the keplerian elements: AFSPC